This is the latest recevied weather packets stored in our database for station/object KD8UTJ. If no packets are shown the sender has not sent any weather packets the latest 10 day(s).
| Time | Temp. | Humidity | Pressure | Rain* | Wind** | Luminosity | Snow |
|---|---|---|---|---|---|---|---|
| 1777829238 | 23.89° C | 70% | 1019.7 hPa | 0 mm | - | 351 W/m² | - |
| 1777828935 | 24.44° C | 70% | 1019.6 hPa | 0 mm | - | 353 W/m² | - |
| 1777828631 | 24.44° C | 71% | 1019.9 hPa | 0 mm | - | 465 W/m² | - |
| 1777828329 | 24.44° C | 72% | 1019.8 hPa | 0 mm | - | 316 W/m² | - |
| 1777828025 | 23.89° C | 72% | 1019.7 hPa | 0 mm | - | 371 W/m² | - |
| 1777827722 | 23.89° C | 71% | 1019.8 hPa | 0 mm | - | 401 W/m² | - |
| 1777827419 | 23.89° C | 71% | 1019.9 hPa | 0 mm | - | 446 W/m² | - |
| 1777827116 | 23.33° C | 73% | 1020.1 hPa | 0 mm | - | 504 W/m² | - |
| 1777826812 | 23.33° C | 73% | 1020 hPa | 0 mm | - | 305 W/m² | - |
| 1777826510 | 23.33° C | 73% | 1020.3 hPa | 0 mm | - | 240 W/m² | - |
| 1777826206 | 23.33° C | 74% | 1020 hPa | 0 mm | - | 207 W/m² | - |
| 1777825904 | 23.33° C | 73% | 1020.1 hPa | 0 mm | - | 221 W/m² | - |
| 1777825601 | 23.33° C | 73% | 1020.1 hPa | 0 mm | - | 221 W/m² | - |
| 1777825299 | 23.33° C | 73% | 1020.1 hPa | 0 mm | - | 216 W/m² | - |
| 1777824995 | 22.78° C | 73% | 1020.1 hPa | 0 mm | - | 414 W/m² | - |
| 1777824691 | 23.33° C | 73% | 1020.2 hPa | 0 mm | - | 151 W/m² | - |
| 1777824389 | 23.33° C | 73% | 1020.1 hPa | 0 mm | - | 217 W/m² | - |
| 1777824084 | 23.33° C | 72% | 1020.3 hPa | 0 mm | - | 249 W/m² | - |
| 1777823781 | 23.33° C | 73% | 1020.2 hPa | 0 mm | - | 354 W/m² | - |
| 1777823478 | 23.33° C | 73% | 1020 hPa | 0 mm | - | 316 W/m² | - |
| 1777823175 | 22.78° C | 73% | 1020.2 hPa | 0 mm | - | 262 W/m² | - |
| 1777822873 | 22.78° C | 73% | 1020.1 hPa | 0 mm | - | 210 W/m² | - |
| 1777822571 | 22.78° C | 75% | 1020.2 hPa | 0 mm | - | 236 W/m² | - |
| 1777822268 | 22.78° C | 74% | 1020.2 hPa | 0 mm | - | 210 W/m² | - |
| 1777821965 | 22.78° C | 74% | 1020.2 hPa | 0 mm | - | 233 W/m² | - |
* Rain latest hour (hover to see other rain measurements)
** Current wind speed in m/s (hover to see current wind gust speed)